Torna al catalogo

STARLINK-30852

AttivoComunicazioniVLEO
NORAD 58373·PAYLOAD·🇺🇸 United States

Lanciato Nov 18, 2023 da Cape Canaveral Space Force Station

Loading…

Prossimi Passaggi (prossime 24 ore)

TLE

AggiornatoSource: CelesTrak SupGP

Epoca: Sep 15, 2026, 02:48 UTC

1 58373C 23177Y   26258.11715278  .00028101  00000+0  10182-2 0  2584
2 58373  43.0038   0.5975 0001636 275.0388 317.3799 15.27553216    18

Traccia STARLINK-30852 in tempo reale con AllMySat

Download on the App Store